Year,Month,Day,Hour,Minute,Value (Times are PST for temperature in C)
2009,07,29,00,00,24.00
2009,07,29,00,01,23.90
2009,07,29,00,02,23.90
2009,07,29,00,03,23.80
2009,07,29,00,04,23.80
2009,07,29,00,05,23.80
2009,07,29,00,06,23.70
2009,07,29,00,07,23.70
2009,07,29,00,08,23.70
2009,07,29,00,09,23.70
2009,07,29,00,10,23.70
2009,07,29,00,11,23.70
2009,07,29,00,12,23.70
2009,07,29,00,13,23.60
2009,07,29,00,14,23.60
2009,07,29,00,15,23.60
2009,07,29,00,16,23.50
2009,07,29,00,17,23.40
2009,07,29,00,18,23.40
2009,07,29,00,19,23.40
2009,07,29,00,20,23.30
2009,07,29,00,21,23.30
2009,07,29,00,22,23.30
2009,07,29,00,23,23.30
2009,07,29,00,24,23.30
2009,07,29,00,25,23.20
2009,07,29,00,26,23.20
2009,07,29,00,27,23.20
2009,07,29,00,28,23.20
2009,07,29,00,29,23.20
2009,07,29,00,30,23.10
2009,07,29,00,31,23.10
2009,07,29,00,32,23.10
2009,07,29,00,33,23.10
2009,07,29,00,34,23.10
2009,07,29,00,35,23.10
2009,07,29,00,36,23.10
2009,07,29,00,37,23.10
2009,07,29,00,38,23.10
2009,07,29,00,39,23.10
2009,07,29,00,40,23.10
2009,07,29,00,41,22.90
2009,07,29,00,42,22.90
2009,07,29,00,43,22.90
2009,07,29,00,44,22.90
2009,07,29,00,45,22.90
2009,07,29,00,46,22.90
2009,07,29,00,47,22.90
2009,07,29,00,48,22.90
2009,07,29,00,49,22.90
2009,07,29,00,50,22.90
2009,07,29,00,51,22.90
2009,07,29,00,52,22.90
2009,07,29,00,53,22.90
2009,07,29,00,54,22.90
2009,07,29,00,55,22.90
2009,07,29,00,56,22.90
2009,07,29,00,57,22.80
2009,07,29,00,58,22.80
2009,07,29,00,59,22.80
2009,07,29,01,00,22.80
2009,07,29,01,01,22.80
2009,07,29,01,02,22.80
2009,07,29,01,03,22.80
2009,07,29,01,04,22.80
2009,07,29,01,05,22.80
2009,07,29,01,06,22.80
2009,07,29,01,07,22.90
2009,07,29,01,08,22.90
2009,07,29,01,09,22.90
2009,07,29,01,10,22.90
2009,07,29,01,11,23.00
2009,07,29,01,12,23.10
2009,07,29,01,13,23.10
2009,07,29,01,14,23.20
2009,07,29,01,15,23.20
2009,07,29,01,16,23.30
2009,07,29,01,17,23.30
2009,07,29,01,18,23.30
2009,07,29,01,19,23.30
2009,07,29,01,20,23.30
2009,07,29,01,21,23.30
2009,07,29,01,22,23.30
2009,07,29,01,23,23.30
2009,07,29,01,24,23.30
2009,07,29,01,25,23.30
2009,07,29,01,26,23.30
2009,07,29,01,27,23.20
2009,07,29,01,28,23.20
2009,07,29,01,29,23.20
2009,07,29,01,30,23.20
2009,07,29,01,31,23.10
2009,07,29,01,32,23.10
2009,07,29,01,33,23.00
2009,07,29,01,34,22.90
2009,07,29,01,35,22.90
2009,07,29,01,36,22.90
2009,07,29,01,37,22.90
2009,07,29,01,38,22.90
2009,07,29,01,39,22.90
2009,07,29,01,40,22.90
2009,07,29,01,41,22.80
2009,07,29,01,42,22.80
2009,07,29,01,43,22.80
2009,07,29,01,44,22.80
2009,07,29,01,45,22.80
2009,07,29,01,46,22.80
2009,07,29,01,47,22.80
2009,07,29,01,48,22.70
2009,07,29,01,49,22.70
2009,07,29,01,50,22.80
2009,07,29,01,51,22.80
2009,07,29,01,52,22.80
2009,07,29,01,53,22.80
2009,07,29,01,54,22.80
2009,07,29,01,55,22.80
2009,07,29,01,56,22.80
2009,07,29,01,57,22.80
2009,07,29,01,58,22.80
2009,07,29,01,59,22.80
2009,07,29,02,00,22.80
2009,07,29,02,01,22.80
2009,07,29,02,02,22.80
2009,07,29,02,03,22.80
2009,07,29,02,04,22.80
2009,07,29,02,05,22.80
2009,07,29,02,06,22.80
2009,07,29,02,07,22.80
2009,07,29,02,08,22.80
2009,07,29,02,09,22.80
2009,07,29,02,10,22.80
2009,07,29,02,11,22.80
2009,07,29,02,12,22.80
2009,07,29,02,13,22.80
2009,07,29,02,14,22.80
2009,07,29,02,15,22.80
2009,07,29,02,16,22.80
2009,07,29,02,17,22.80
2009,07,29,02,18,22.80
2009,07,29,02,19,22.80
2009,07,29,02,20,22.80
2009,07,29,02,21,22.70
2009,07,29,02,22,22.70
2009,07,29,02,23,22.70
2009,07,29,02,24,22.70
2009,07,29,02,25,22.70
2009,07,29,02,26,22.70
2009,07,29,02,27,22.60
2009,07,29,02,28,22.60
2009,07,29,02,29,22.60
2009,07,29,02,30,22.60
2009,07,29,02,31,22.50
2009,07,29,02,32,22.50
2009,07,29,02,33,22.40
2009,07,29,02,34,22.40
2009,07,29,02,35,22.30
2009,07,29,02,36,22.30
2009,07,29,02,37,22.20
2009,07,29,02,38,22.20
2009,07,29,02,39,22.20
2009,07,29,02,40,22.10
2009,07,29,02,41,22.10
2009,07,29,02,42,22.10
2009,07,29,02,43,22.00
2009,07,29,02,44,22.00
2009,07,29,02,45,22.00
2009,07,29,02,46,22.00
2009,07,29,02,47,21.90
2009,07,29,02,48,21.90
2009,07,29,02,49,21.90
2009,07,29,02,50,21.80
2009,07,29,02,51,21.80
2009,07,29,02,52,21.80
2009,07,29,02,53,21.70
2009,07,29,02,54,21.70
2009,07,29,02,55,21.70
2009,07,29,02,56,21.70
2009,07,29,02,57,21.60
2009,07,29,02,58,21.60
2009,07,29,02,59,21.60
2009,07,29,03,00,21.60
2009,07,29,03,01,21.60
2009,07,29,03,02,21.60
2009,07,29,03,03,21.60
2009,07,29,03,04,21.60
2009,07,29,03,05,21.60
2009,07,29,03,06,21.60
2009,07,29,03,07,21.60
2009,07,29,03,08,21.60
2009,07,29,03,09,21.60
2009,07,29,03,10,21.60
2009,07,29,03,11,21.60
2009,07,29,03,12,21.60
2009,07,29,03,13,21.60
2009,07,29,03,14,21.60
2009,07,29,03,15,21.60
2009,07,29,03,16,21.60
2009,07,29,03,17,21.60
2009,07,29,03,18,21.60
2009,07,29,03,19,21.60
2009,07,29,03,20,21.50
2009,07,29,03,21,21.40
2009,07,29,03,22,21.40
2009,07,29,03,23,21.40
2009,07,29,03,24,21.40
2009,07,29,03,25,21.40
2009,07,29,03,26,21.40
2009,07,29,03,27,21.40
2009,07,29,03,28,21.40
2009,07,29,03,29,21.40
2009,07,29,03,30,21.40
2009,07,29,03,31,21.40
2009,07,29,03,32,21.40
2009,07,29,03,33,21.30
2009,07,29,03,34,21.30
2009,07,29,03,35,21.30
2009,07,29,03,36,21.30
2009,07,29,03,37,21.30
2009,07,29,03,38,21.30
2009,07,29,03,39,21.30
2009,07,29,03,40,21.30
2009,07,29,03,41,21.30
2009,07,29,03,42,21.30
2009,07,29,03,43,21.30
2009,07,29,03,44,21.30
2009,07,29,03,45,21.30
2009,07,29,03,46,21.30
2009,07,29,03,47,21.30
2009,07,29,03,48,21.30
2009,07,29,03,49,21.30
2009,07,29,03,50,21.30
2009,07,29,03,51,21.30
2009,07,29,03,52,21.30
2009,07,29,03,53,21.20
2009,07,29,03,54,21.20
2009,07,29,03,55,21.20
2009,07,29,03,56,21.20
2009,07,29,03,57,21.20
2009,07,29,03,58,21.10
2009,07,29,03,59,21.10
2009,07,29,04,00,21.10
2009,07,29,04,01,21.10
2009,07,29,04,02,21.10
2009,07,29,04,03,21.00
2009,07,29,04,04,21.00
2009,07,29,04,07,21.00
2009,07,29,04,08,20.90
2009,07,29,04,09,20.90
2009,07,29,04,10,20.90
2009,07,29,04,11,20.90
2009,07,29,04,12,20.90
2009,07,29,04,13,20.90
2009,07,29,04,14,20.90
2009,07,29,04,15,20.80
2009,07,29,04,16,20.80
2009,07,29,04,17,20.80
2009,07,29,04,18,20.80
2009,07,29,04,19,20.80
2009,07,29,04,20,20.70
2009,07,29,04,21,20.70
2009,07,29,04,22,20.70
2009,07,29,04,23,20.70
2009,07,29,04,24,20.70
2009,07,29,04,25,20.70
2009,07,29,04,26,20.70
2009,07,29,04,27,20.70
2009,07,29,04,28,20.70
2009,07,29,04,29,20.70
2009,07,29,04,30,20.60
2009,07,29,04,31,20.60
2009,07,29,04,32,20.60
2009,07,29,04,33,20.60
2009,07,29,04,34,20.60
2009,07,29,04,35,20.60
2009,07,29,04,36,20.60
2009,07,29,04,37,20.60
2009,07,29,04,38,20.60
2009,07,29,04,39,20.60
2009,07,29,04,40,20.50
2009,07,29,04,41,20.50
2009,07,29,04,42,20.50
2009,07,29,04,43,20.50
2009,07,29,04,44,20.50
2009,07,29,04,45,20.50
2009,07,29,04,46,20.50
2009,07,29,04,47,20.50
2009,07,29,04,48,20.50
2009,07,29,04,49,20.40
2009,07,29,04,50,20.40
2009,07,29,04,51,20.40
2009,07,29,04,52,20.40
2009,07,29,04,53,20.30
2009,07,29,04,54,20.30
2009,07,29,04,55,20.20
2009,07,29,04,56,20.20
2009,07,29,04,57,20.20
2009,07,29,04,58,20.20
2009,07,29,04,59,20.20
2009,07,29,05,00,20.20
2009,07,29,05,01,20.20
2009,07,29,05,02,20.20
2009,07,29,05,03,20.20
2009,07,29,05,04,20.20
2009,07,29,05,05,20.20
2009,07,29,05,06,20.20
2009,07,29,05,07,20.20
2009,07,29,05,08,20.20
2009,07,29,05,09,20.20
2009,07,29,05,10,20.20
2009,07,29,05,11,20.20
2009,07,29,05,12,20.20
2009,07,29,05,13,20.10
2009,07,29,05,14,20.10
2009,07,29,05,15,20.10
2009,07,29,05,16,20.10
2009,07,29,05,17,20.00
2009,07,29,05,18,19.90
2009,07,29,05,19,19.90
2009,07,29,05,20,19.90
2009,07,29,05,21,19.90
2009,07,29,05,22,19.90
2009,07,29,05,23,19.80
2009,07,29,05,24,19.80
2009,07,29,05,25,19.80
2009,07,29,05,26,19.80
2009,07,29,05,27,19.80
2009,07,29,05,28,19.80
2009,07,29,05,29,19.80
2009,07,29,05,30,19.80
2009,07,29,05,31,19.80
2009,07,29,05,32,19.80
2009,07,29,05,33,19.70
2009,07,29,05,34,19.70
2009,07,29,05,35,19.70
2009,07,29,05,36,19.70
2009,07,29,05,37,19.70
2009,07,29,05,38,19.60
2009,07,29,05,39,19.60
2009,07,29,05,40,19.60
2009,07,29,05,41,19.60
2009,07,29,05,42,19.70
2009,07,29,05,43,19.70
2009,07,29,05,44,19.70
2009,07,29,05,45,19.70
2009,07,29,05,46,19.70
2009,07,29,05,47,19.70
2009,07,29,05,48,19.70
2009,07,29,05,49,19.80
2009,07,29,05,50,19.80
2009,07,29,05,51,19.80
2009,07,29,05,52,19.80
2009,07,29,05,53,19.80
2009,07,29,05,54,19.90
2009,07,29,05,55,19.90
2009,07,29,05,56,19.90
2009,07,29,05,57,19.90
2009,07,29,05,58,19.90
2009,07,29,05,59,19.90
2009,07,29,06,00,19.90
2009,07,29,06,01,19.90
2009,07,29,06,02,20.00
2009,07,29,06,03,20.10
2009,07,29,06,04,20.10
2009,07,29,06,05,20.20
2009,07,29,06,06,20.20
2009,07,29,06,07,20.20
2009,07,29,06,08,20.20
2009,07,29,06,09,20.20
2009,07,29,06,10,20.30
2009,07,29,06,11,20.30
2009,07,29,06,12,20.40
2009,07,29,06,13,20.40
2009,07,29,06,14,20.50
2009,07,29,06,15,20.50
2009,07,29,06,16,20.50
2009,07,29,06,17,20.60
2009,07,29,06,18,20.60
2009,07,29,06,19,20.60
2009,07,29,06,20,20.70
2009,07,29,06,21,20.70
2009,07,29,06,22,20.70
2009,07,29,06,23,20.70
2009,07,29,06,24,20.80
2009,07,29,06,25,20.80
2009,07,29,06,26,20.80
2009,07,29,06,27,20.80
2009,07,29,06,28,20.80
2009,07,29,06,29,20.80
2009,07,29,06,30,20.70
2009,07,29,06,31,20.70
2009,07,29,06,32,20.70
2009,07,29,06,33,20.70
2009,07,29,06,34,20.70
2009,07,29,06,35,20.70
2009,07,29,06,36,20.70
2009,07,29,06,37,20.70
2009,07,29,06,38,20.70
2009,07,29,06,39,20.70
2009,07,29,06,40,20.70
2009,07,29,06,41,20.70
2009,07,29,06,42,20.70
2009,07,29,06,43,20.60
2009,07,29,06,44,20.60
2009,07,29,06,45,20.60
2009,07,29,06,46,20.60
2009,07,29,06,47,20.60
2009,07,29,06,48,20.60
2009,07,29,06,49,20.60
2009,07,29,06,50,20.70
2009,07,29,06,51,20.70
2009,07,29,06,52,20.70
2009,07,29,06,53,20.80
2009,07,29,06,54,20.80
2009,07,29,06,55,20.80
2009,07,29,06,56,20.80
2009,07,29,06,57,20.90
2009,07,29,06,58,20.90
2009,07,29,06,59,21.00
2009,07,29,07,00,21.00
2009,07,29,07,01,21.10
2009,07,29,07,02,21.10
2009,07,29,07,03,21.20
2009,07,29,07,04,21.30
2009,07,29,07,05,21.30
2009,07,29,07,06,21.30
2009,07,29,07,07,21.40
2009,07,29,07,08,21.50
2009,07,29,07,09,21.60
2009,07,29,07,10,21.60
2009,07,29,07,11,21.70
2009,07,29,07,12,21.90
2009,07,29,07,13,22.00
2009,07,29,07,14,22.10
2009,07,29,07,15,22.20
2009,07,29,07,16,22.40
2009,07,29,07,17,22.50
2009,07,29,07,18,22.60
2009,07,29,07,19,22.70
2009,07,29,07,20,22.80
2009,07,29,07,21,22.90
2009,07,29,07,22,23.00
2009,07,29,07,23,23.10
2009,07,29,07,24,23.20
2009,07,29,07,25,23.20
2009,07,29,07,26,23.20
2009,07,29,07,27,23.30
2009,07,29,07,28,23.30
2009,07,29,07,29,23.30
2009,07,29,07,30,23.20
2009,07,29,07,31,23.00
2009,07,29,07,32,22.80
2009,07,29,07,33,22.50
2009,07,29,07,34,22.00
2009,07,29,07,35,21.60
2009,07,29,07,36,21.40
2009,07,29,07,37,21.20
2009,07,29,07,38,21.10
2009,07,29,07,39,21.10
2009,07,29,07,40,21.10
2009,07,29,07,41,21.10
2009,07,29,07,42,21.10
2009,07,29,07,43,21.10
2009,07,29,07,44,21.10
2009,07,29,07,45,21.10
2009,07,29,07,46,21.10
2009,07,29,07,47,21.20
2009,07,29,07,48,21.20
2009,07,29,07,49,21.30
2009,07,29,07,50,21.30
2009,07,29,07,51,21.40
2009,07,29,07,52,21.50
2009,07,29,07,53,21.60
2009,07,29,07,54,21.60
2009,07,29,07,55,21.70
2009,07,29,07,56,21.80
2009,07,29,07,57,21.90
2009,07,29,07,58,22.00
2009,07,29,07,59,22.10
2009,07,29,08,00,22.20
2009,07,29,08,01,22.30
2009,07,29,08,02,22.40
2009,07,29,08,03,22.50
2009,07,29,08,04,22.60
2009,07,29,08,05,22.70
2009,07,29,08,06,22.70
2009,07,29,08,07,22.80
2009,07,29,08,08,22.90
2009,07,29,08,09,23.00
2009,07,29,08,10,23.10
2009,07,29,08,11,23.20
2009,07,29,08,12,23.30
2009,07,29,08,13,23.30
2009,07,29,08,14,23.40
2009,07,29,08,15,23.50
2009,07,29,08,16,23.60
2009,07,29,08,17,23.60
2009,07,29,08,18,23.70
2009,07,29,08,19,23.70
2009,07,29,08,20,23.70
2009,07,29,08,21,23.70
2009,07,29,08,22,23.70
2009,07,29,08,23,23.80
2009,07,29,08,24,23.80
2009,07,29,08,25,23.90
2009,07,29,08,26,23.90
2009,07,29,08,27,24.00
2009,07,29,08,28,24.10
2009,07,29,08,29,24.20
2009,07,29,08,30,24.30
2009,07,29,08,31,24.40
2009,07,29,08,32,24.40
2009,07,29,08,33,24.50
2009,07,29,08,34,24.60
2009,07,29,08,35,24.70
2009,07,29,08,36,24.70
2009,07,29,08,37,24.70
2009,07,29,08,38,24.80
2009,07,29,08,39,24.80
2009,07,29,08,40,24.80
2009,07,29,08,41,24.90
2009,07,29,08,42,24.90
2009,07,29,08,43,24.90
2009,07,29,08,44,25.00
2009,07,29,08,45,25.00
2009,07,29,08,46,25.10
2009,07,29,08,47,25.10
2009,07,29,08,48,25.00
2009,07,29,08,49,24.90
2009,07,29,08,50,24.80
2009,07,29,08,51,24.70
2009,07,29,08,52,24.70
2009,07,29,08,53,24.60
2009,07,29,08,54,24.60
2009,07,29,08,55,24.60
2009,07,29,08,56,24.60
2009,07,29,08,57,24.70
2009,07,29,08,58,24.70
2009,07,29,08,59,24.70
2009,07,29,09,00,24.80
2009,07,29,09,01,24.80
2009,07,29,09,02,24.80
2009,07,29,09,03,24.80
2009,07,29,09,04,24.80
2009,07,29,09,05,24.90
2009,07,29,09,06,24.90
2009,07,29,09,07,24.90
2009,07,29,09,08,24.90
2009,07,29,09,09,24.90
2009,07,29,09,10,25.00
2009,07,29,09,11,25.00
2009,07,29,09,12,25.00
2009,07,29,09,13,25.00
2009,07,29,09,14,25.00
2009,07,29,09,15,25.00
2009,07,29,09,16,25.00
2009,07,29,09,17,25.10
2009,07,29,09,18,25.10
2009,07,29,09,19,25.20
2009,07,29,09,20,25.30
2009,07,29,09,21,25.30
2009,07,29,09,22,25.40
2009,07,29,09,23,25.50
2009,07,29,09,24,25.50
2009,07,29,09,25,25.60
2009,07,29,09,26,25.60
2009,07,29,09,27,25.60
2009,07,29,09,28,25.70
2009,07,29,09,29,25.70
2009,07,29,09,30,25.80
2009,07,29,09,31,25.90
2009,07,29,09,32,26.00
2009,07,29,09,33,26.10
2009,07,29,09,34,26.30
2009,07,29,09,35,26.30
2009,07,29,09,36,26.40
2009,07,29,09,37,26.50
2009,07,29,09,38,26.60
2009,07,29,09,39,26.60
2009,07,29,09,40,26.60
2009,07,29,09,41,26.70
2009,07,29,09,42,26.80
2009,07,29,09,43,26.90
2009,07,29,09,44,27.00
2009,07,29,09,45,27.10
2009,07,29,09,46,27.10
2009,07,29,09,47,27.20
2009,07,29,09,48,27.20
2009,07,29,09,49,27.30
2009,07,29,09,50,27.30
2009,07,29,09,51,27.40
2009,07,29,09,52,27.40
2009,07,29,09,53,27.50
2009,07,29,09,54,27.60
2009,07,29,09,55,27.60
2009,07,29,09,56,27.60
2009,07,29,09,57,27.60
2009,07,29,09,58,27.60
2009,07,29,09,59,27.70
2009,07,29,10,00,27.70
2009,07,29,10,01,27.80
2009,07,29,10,02,27.90
2009,07,29,10,03,28.00
2009,07,29,10,04,28.10
2009,07,29,10,05,28.10
2009,07,29,10,06,28.20
2009,07,29,10,07,28.20
2009,07,29,10,08,28.30
2009,07,29,10,09,28.40
2009,07,29,10,10,28.40
2009,07,29,10,11,28.60
2009,07,29,10,12,28.70
2009,07,29,10,13,28.70
2009,07,29,10,14,28.80
2009,07,29,10,15,28.70
2009,07,29,10,16,28.80
2009,07,29,10,17,28.80
2009,07,29,10,18,28.80
2009,07,29,10,19,28.80
2009,07,29,10,20,28.90
2009,07,29,10,21,29.00
2009,07,29,10,22,29.10
2009,07,29,10,23,29.20
2009,07,29,10,24,29.30
2009,07,29,10,25,29.30
2009,07,29,10,26,29.40
2009,07,29,10,27,29.40
2009,07,29,10,28,29.40
2009,07,29,10,29,29.40
2009,07,29,10,30,29.40
2009,07,29,10,31,29.50
2009,07,29,10,32,29.50
2009,07,29,10,33,29.40
2009,07,29,10,34,29.40
2009,07,29,10,35,29.40
2009,07,29,10,36,29.40
2009,07,29,10,37,29.50
2009,07,29,10,38,29.60
2009,07,29,10,39,29.60
2009,07,29,10,40,29.60
2009,07,29,10,41,29.60
2009,07,29,10,42,29.70
2009,07,29,10,43,29.70
2009,07,29,10,44,29.70
2009,07,29,10,45,29.70
2009,07,29,10,46,29.70
2009,07,29,10,47,29.70
2009,07,29,10,48,29.70
2009,07,29,10,49,29.60
2009,07,29,10,50,29.60
2009,07,29,10,51,29.50
2009,07,29,10,52,29.40
2009,07,29,10,53,29.30
2009,07,29,10,54,29.30
2009,07,29,10,55,29.30
2009,07,29,10,56,29.40
2009,07,29,10,57,29.40
2009,07,29,10,58,29.40
2009,07,29,10,59,29.40
2009,07,29,11,00,29.40
2009,07,29,11,01,29.50
2009,07,29,11,02,29.60
2009,07,29,11,03,29.60
2009,07,29,11,04,29.70
2009,07,29,11,05,29.70
2009,07,29,11,06,29.80
2009,07,29,11,07,29.80
2009,07,29,11,08,29.80
2009,07,29,11,09,29.90
2009,07,29,11,10,30.00
2009,07,29,11,11,30.00
2009,07,29,11,12,30.10
2009,07,29,11,13,30.00
2009,07,29,11,14,29.90
2009,07,29,11,15,29.90
2009,07,29,11,16,30.10
2009,07,29,11,17,30.10
2009,07,29,11,18,30.20
2009,07,29,11,19,30.30
2009,07,29,11,20,30.30
2009,07,29,11,21,30.30
2009,07,29,11,22,30.30
2009,07,29,11,23,30.40
2009,07,29,11,24,30.40
2009,07,29,11,25,30.50
2009,07,29,11,26,30.60
2009,07,29,11,27,30.70
2009,07,29,11,28,30.90
2009,07,29,11,29,31.00
2009,07,29,11,30,31.10
2009,07,29,11,31,31.10
2009,07,29,11,32,31.00
2009,07,29,11,33,30.90
2009,07,29,11,34,30.80
2009,07,29,11,35,30.90
2009,07,29,11,36,30.90
2009,07,29,11,37,31.00
2009,07,29,11,38,31.10
2009,07,29,11,39,31.10
2009,07,29,11,40,31.20
2009,07,29,11,41,31.20
2009,07,29,11,42,31.10
2009,07,29,11,43,31.10
2009,07,29,11,44,31.00
2009,07,29,11,45,31.00
2009,07,29,11,46,31.00
2009,07,29,11,47,31.10
2009,07,29,11,48,31.20
2009,07,29,11,49,31.30
2009,07,29,11,50,31.30
2009,07,29,11,51,31.30
2009,07,29,11,52,31.30
2009,07,29,11,53,31.20
2009,07,29,11,54,31.20
2009,07,29,11,55,31.30
2009,07,29,11,56,31.40
2009,07,29,11,57,31.50
2009,07,29,11,58,31.60
2009,07,29,11,59,31.70
2009,07,29,12,00,31.70
2009,07,29,12,01,31.70
2009,07,29,12,02,31.80
2009,07,29,12,03,31.80
2009,07,29,12,04,31.70
2009,07,29,12,05,31.70
2009,07,29,12,06,31.70
2009,07,29,12,07,31.70
2009,07,29,12,08,31.60
2009,07,29,12,09,31.60
2009,07,29,12,10,31.50
2009,07,29,12,11,31.40
2009,07,29,12,12,31.40
2009,07,29,12,13,31.40
2009,07,29,12,14,31.50
2009,07,29,12,15,31.60
2009,07,29,12,16,31.70
2009,07,29,12,17,31.80
2009,07,29,12,18,31.90
2009,07,29,12,19,31.90
2009,07,29,12,20,31.90
2009,07,29,12,21,31.90
2009,07,29,12,22,31.90
2009,07,29,12,23,31.90
2009,07,29,12,24,31.90
2009,07,29,12,25,31.90
2009,07,29,12,26,32.10
2009,07,29,12,27,32.20
2009,07,29,12,28,32.20
2009,07,29,12,29,32.20
2009,07,29,12,30,32.20
2009,07,29,12,31,32.20
2009,07,29,12,32,32.30
2009,07,29,12,33,32.30
2009,07,29,12,34,32.40
2009,07,29,12,35,32.40
2009,07,29,12,36,32.40
2009,07,29,12,37,32.40
2009,07,29,12,38,32.50
2009,07,29,12,39,32.50
2009,07,29,12,40,32.50
2009,07,29,12,41,32.50
2009,07,29,12,42,32.50
2009,07,29,12,43,32.50
2009,07,29,12,44,32.60
2009,07,29,12,45,32.60
2009,07,29,12,46,32.60
2009,07,29,12,47,32.80
2009,07,29,12,48,32.80
2009,07,29,12,49,32.80
2009,07,29,12,50,32.90
2009,07,29,12,51,32.80
2009,07,29,12,52,32.80
2009,07,29,12,53,32.80
2009,07,29,12,54,32.60
2009,07,29,12,55,32.50
2009,07,29,12,56,32.30
2009,07,29,12,57,32.30
2009,07,29,12,58,32.40
2009,07,29,12,59,32.40
2009,07,29,13,00,32.40
2009,07,29,13,01,32.30
2009,07,29,13,02,32.30
2009,07,29,13,03,32.20
2009,07,29,13,04,32.20
2009,07,29,13,05,32.20
2009,07,29,13,06,32.20
2009,07,29,13,07,32.20
2009,07,29,13,08,32.20
2009,07,29,13,09,32.10
2009,07,29,13,10,32.10
2009,07,29,13,11,32.10
2009,07,29,13,12,32.00
2009,07,29,13,13,31.90
2009,07,29,13,14,31.80
2009,07,29,13,15,31.90
2009,07,29,13,16,32.00
2009,07,29,13,17,32.10
2009,07,29,13,18,32.20
2009,07,29,13,19,32.20
2009,07,29,13,20,32.30
2009,07,29,13,21,32.50
2009,07,29,13,22,32.50
2009,07,29,13,23,32.40
2009,07,29,13,24,32.40
2009,07,29,13,25,32.40
2009,07,29,13,26,32.40
2009,07,29,13,27,32.30
2009,07,29,13,28,32.40
2009,07,29,13,29,32.40
2009,07,29,13,30,32.30
2009,07,29,13,31,32.30
2009,07,29,13,32,32.20
2009,07,29,13,33,32.20
2009,07,29,13,34,32.30
2009,07,29,13,35,32.40
2009,07,29,13,36,32.50
2009,07,29,13,37,32.50
2009,07,29,13,38,32.60
2009,07,29,13,39,32.60
2009,07,29,13,40,32.60
2009,07,29,13,41,32.80
2009,07,29,13,42,32.80
2009,07,29,13,43,32.90
2009,07,29,13,44,32.90
2009,07,29,13,45,32.90
2009,07,29,13,46,32.80
2009,07,29,13,47,32.80
2009,07,29,13,48,32.80
2009,07,29,13,49,32.90
2009,07,29,13,50,32.90
2009,07,29,13,51,32.80
2009,07,29,13,52,32.80
2009,07,29,13,53,32.80
2009,07,29,13,54,32.80
2009,07,29,13,55,32.80
2009,07,29,13,56,32.80
2009,07,29,13,57,32.80
2009,07,29,13,58,32.90
2009,07,29,13,59,32.80
2009,07,29,14,00,32.80
2009,07,29,14,01,32.80
2009,07,29,14,02,32.80
2009,07,29,14,03,32.90
2009,07,29,14,04,33.00
2009,07,29,14,05,33.00
2009,07,29,14,06,33.00
2009,07,29,14,07,33.10
2009,07,29,14,08,33.20
2009,07,29,14,09,33.20
2009,07,29,14,10,33.20
2009,07,29,14,11,33.30
2009,07,29,14,12,33.40
2009,07,29,14,13,33.40
2009,07,29,14,14,33.40
2009,07,29,14,15,33.50
2009,07,29,14,16,33.50
2009,07,29,14,17,33.50
2009,07,29,14,18,33.40
2009,07,29,14,19,33.50
2009,07,29,14,20,33.50
2009,07,29,14,21,33.60
2009,07,29,14,22,33.70
2009,07,29,14,23,33.70
2009,07,29,14,24,33.70
2009,07,29,14,25,33.60
2009,07,29,14,26,33.60
2009,07,29,14,27,33.70
2009,07,29,14,28,33.70
2009,07,29,14,29,33.80
2009,07,29,14,30,33.80
2009,07,29,14,31,33.80
2009,07,29,14,32,33.80
2009,07,29,14,33,33.80
2009,07,29,14,34,33.80
2009,07,29,14,35,33.90
2009,07,29,14,36,34.00
2009,07,29,14,37,34.10
2009,07,29,14,38,34.10
2009,07,29,14,39,34.10
2009,07,29,14,40,34.20
2009,07,29,14,41,34.30
2009,07,29,14,42,34.20
2009,07,29,14,43,34.20
2009,07,29,14,44,34.20
2009,07,29,14,45,34.20
2009,07,29,14,46,34.20
2009,07,29,14,47,34.20
2009,07,29,14,48,34.20
2009,07,29,14,49,34.30
2009,07,29,14,50,34.40
2009,07,29,14,51,34.40
2009,07,29,14,52,34.30
2009,07,29,14,53,34.10
2009,07,29,14,54,34.00
2009,07,29,14,55,33.80
2009,07,29,14,56,33.80
2009,07,29,14,57,33.70
2009,07,29,14,58,33.80
2009,07,29,14,59,33.80
2009,07,29,15,00,33.90
2009,07,29,15,01,34.00
2009,07,29,15,02,33.80
2009,07,29,15,03,33.70
2009,07,29,15,04,33.70
2009,07,29,15,05,33.60
2009,07,29,15,06,33.70
2009,07,29,15,07,33.70
2009,07,29,15,08,33.70
2009,07,29,15,09,33.60
2009,07,29,15,10,33.60
2009,07,29,15,11,33.60
2009,07,29,15,12,33.60
2009,07,29,15,13,33.60
2009,07,29,15,14,33.60
2009,07,29,15,15,33.60
2009,07,29,15,16,33.70
2009,07,29,15,17,33.70
2009,07,29,15,18,33.70
2009,07,29,15,19,33.70
2009,07,29,15,20,33.70
2009,07,29,15,21,33.70
2009,07,29,15,22,33.70
2009,07,29,15,23,33.70
2009,07,29,15,24,33.80
2009,07,29,15,25,33.80
2009,07,29,15,26,33.70
2009,07,29,15,27,33.60
2009,07,29,15,28,33.60
2009,07,29,15,29,33.60
2009,07,29,15,30,33.60
2009,07,29,15,31,33.60
2009,07,29,15,32,33.60
2009,07,29,15,33,33.80
2009,07,29,15,34,34.00
2009,07,29,15,35,34.10
2009,07,29,15,36,34.20
2009,07,29,15,37,34.30
2009,07,29,15,38,34.40
2009,07,29,15,39,34.40
2009,07,29,15,40,34.40
2009,07,29,15,41,34.40
2009,07,29,15,42,34.40
2009,07,29,15,43,34.40
2009,07,29,15,44,34.40
2009,07,29,15,45,34.40
2009,07,29,15,46,34.30
2009,07,29,15,47,34.30
2009,07,29,15,48,34.30
2009,07,29,15,49,34.30
2009,07,29,15,50,34.30
2009,07,29,15,51,34.20
2009,07,29,15,52,34.10
2009,07,29,15,53,34.00
2009,07,29,15,54,34.00
2009,07,29,15,55,34.10
2009,07,29,15,56,34.10
2009,07,29,15,57,34.10
2009,07,29,15,58,34.10
2009,07,29,15,59,34.10
2009,07,29,16,00,34.10
2009,07,29,16,01,34.10
2009,07,29,16,02,34.10
2009,07,29,16,03,34.10
2009,07,29,16,04,34.20
2009,07,29,16,05,34.30
2009,07,29,16,06,34.40
2009,07,29,16,07,34.40
2009,07,29,16,08,34.60
2009,07,29,16,09,34.70
2009,07,29,16,10,34.80
2009,07,29,16,11,34.90
2009,07,29,16,12,34.90
2009,07,29,16,13,34.80
2009,07,29,16,14,34.80
2009,07,29,16,15,34.70
2009,07,29,16,16,34.50
2009,07,29,16,17,34.40
2009,07,29,16,18,34.30
2009,07,29,16,19,34.30
2009,07,29,16,20,34.30
2009,07,29,16,21,34.30
2009,07,29,16,22,34.40
2009,07,29,16,23,34.40
2009,07,29,16,24,34.50
2009,07,29,16,25,34.60
2009,07,29,16,26,34.60
2009,07,29,16,27,34.60
2009,07,29,16,28,34.70
2009,07,29,16,29,34.80
2009,07,29,16,30,34.90
2009,07,29,16,31,34.90
2009,07,29,16,32,34.80
2009,07,29,16,33,34.70
2009,07,29,16,34,34.70
2009,07,29,16,35,34.70
2009,07,29,16,36,34.50
2009,07,29,16,37,34.30
2009,07,29,16,38,34.20
2009,07,29,16,39,34.20
2009,07,29,16,40,34.20
2009,07,29,16,41,34.20
2009,07,29,16,42,34.10
2009,07,29,16,43,34.10
2009,07,29,16,44,34.10
2009,07,29,16,45,34.00
2009,07,29,16,46,34.00
2009,07,29,16,47,34.00
2009,07,29,16,48,34.00
2009,07,29,16,49,34.00
2009,07,29,16,50,34.00
2009,07,29,16,51,34.00
2009,07,29,16,52,34.00
2009,07,29,16,53,34.00
2009,07,29,16,54,34.00
2009,07,29,16,55,34.10
2009,07,29,16,56,34.10
2009,07,29,16,57,34.10
2009,07,29,16,58,34.20
2009,07,29,16,59,34.20
2009,07,29,17,00,34.30
2009,07,29,17,01,34.30
2009,07,29,17,02,34.30
2009,07,29,17,03,34.30
2009,07,29,17,04,34.30
2009,07,29,17,05,34.30
2009,07,29,17,06,34.30
2009,07,29,17,07,34.30
2009,07,29,17,08,34.20
2009,07,29,17,09,34.20
2009,07,29,17,10,34.20
2009,07,29,17,11,34.20
2009,07,29,17,12,34.20
2009,07,29,17,13,34.20
2009,07,29,17,14,34.20
2009,07,29,17,15,34.30
2009,07,29,17,16,34.30
2009,07,29,17,17,34.30
2009,07,29,17,18,34.20
2009,07,29,17,19,34.20
2009,07,29,17,20,34.20
2009,07,29,17,21,34.10